星链-35054 (STARLINK-35054)

导读

STARLINK-35054是美国于2025年8月30日发射的星链卫星,归属于太空探索技术公司(SpaceX)的星链星座项目。作为星链低轨互联网星座的组成部分,该卫星主要服务于全球范围的低延迟宽带互联网覆盖,将为偏远地区、海事、航空等场景提供互联服务,进一步扩充星链星座的服务容量与覆盖范围。

基本信息
目录编号:
65383
目录名称:
STARLINK-35054
国际标识:
2025-191E
轨道中心:
EARTH
卫星名称:
星链-35054
卫星全名:
星链-35054 (STARLINK-35054)
卫星状态:
在轨 (已飞行370 天)
发射日期:
2025-08-30 UTC
国别 :
美国 (US)
星等 :
--
轨道信息
数据来源 国际轨道数据
星历时间: 2026-09-04T14:00:02+0800
11小时前
查看轨道信息
半长轴: 6843.622km
偏心率: 0.0001753
轨道倾角: 97.285°
近地点辐角 82.714°
升交点赤经 113.466°
平近点角 354.243°
近地点: 464.285km
远地点: 466.685km
周期: 93.905分钟
每日圈数: 15.334646
详细信息
固有亮度:
5
最大亮度:
2.5
卫星平台:
Starlink V1.0
覆盖范围:
全球
运营商:
太空探索技术公司
运营商所在国:
美国
制造商(研发单位):
太空探索技术公司
制造商所在国:
美国
使用方式:
暂无
卫星简介
Starlink 计划是 SpaceX 推出的全球卫星互联网项目,通过发射低轨道卫星,为全球尤其是偏远地区提供高速、低延迟的互联网服务。自 2019 年起,Starlink 已部署数千颗卫星,旨在缩小全球数字鸿沟,推动互联网普及。该项目还为军事、航空等行业提供通信支持,带来广泛经济效益。
2D轨道图
3D轨道图
轨道高度分析图
轨道倾角分析图
轨道综合分析图
查看轨道综合分析图
交会数据列表
事件ID 空间交会对象 最接近时刻(TCA) 交会距离 交会风险概率(CRP) 交会风险指数(CRI) 操作
CDM_260906-230701-957306-538321
2026-09-06T
23:07:02+0000
2.055 km
极远距离
2.720789E-6 低风险 0.44
CDM_260906-113205-287606-538321
2026-09-06T
11:32:59+0000
2.443 km
极远距离
1.80608E-6 低风险 0.4
CDM_260906-121905-287606-538321
2026-09-06T
12:19:59+0000
2.719 km
极远距离
1.506217E-6 低风险 0.39
CDM_260904-081404-604706-538321
2026-09-04T
08:14:45+0000
2.674 km
极远距离
1.424939E-6 低风险 0.38
CDM_260905-120005-196306-538321
2026-09-05T
12:00:56+0000
2.817 km
极远距离
1.411334E-6 低风险 0.38
CDM_260905-045505-888506-538321
2026-09-05T
04:55:31+0000
2.946 km
极远距离
1.179321E-6 低风险 0.36
CDM_260906-084705-972606-538321
2026-09-06T
08:47:52+0000
2.988 km
极远距离
1.17153E-6 低风险 0.36
CDM_260904-080805-083906-538321
2026-09-04T
08:08:28+0000
2.783 km
极远距离
9.349066E-7 极低风险 0.34